User: anonymous   Login
Location: Unspecified
(0.0000°N, 0.0000°E)
Time: 06:50:42
(UTC+00:00)
Language:

STARLINK-5778 - Orbit

View from above orbital plane
View from above orbital plane
View from above satellite
View from above satellite

Ground track
Ground track

The orbit is defined by the following mean orbital elements,

1 57149U          26145.66668980 +.00000000 +00000-0 +40912-3 0 00005
2 57149  43.0003 173.8204 0001705 281.5568  83.2378 15.26738635    08
Epoch (UTC): 25 May 2026 16:00:01
Eccentricity: 0.0001705
inclination: 43.0003°
perigee height: 484 km
apogee height: 487 km
right ascension of ascending node: 173.8204°
argument of perigee: 281.5568°
revolutions per day: 15.26738635
mean anomaly at epoch: 83.2378°

The dashed part of the orbit path shows where the satellite is in the earth's shadow,  

DLR